"Period start","avg(HW err(1)/warn(2) (#))","avg(Visibility (m))","avg(Weather code (#))","avg(Precip intensity (mm/h))","min(HW err(1)/warn(2) (#))","max(HW err(1)/warn(2) (#))","std(HW err(1)/warn(2) (#))","med(HW err(1)/warn(2) (#))","min(Visibility (m))","max(Visibility (m))","std(Visibility (m))","med(Visibility (m))","min(Weather code (#))","max(Weather code (#))","std(Weather code (#))","med(Weather code (#))","min(Precip intensity (mm/h))","max(Precip intensity (mm/h))","std(Precip intensity (mm/h))","med(Precip intensity (mm/h))"
2016-03-26 00:00:00,2,33480,0,0.00,2,2,0,2,24225,42329,5483,33907,0,0,0,0,0.00,0.00,0.00,0.00
2016-03-26 00:10:00,2,37473,0,0.00,2,2,0,2,18883,50000,10457,42396,0,0,0,0,0.00,0.00,0.00,0.00
2016-03-26 00:20:00,2,36152,0,0.00,2,2,0,2,24380,48242,6413,36146,0,0,0,0,0.00,0.00,0.00,0.00
2016-03-26 00:30:00,2,37793,0,0.00,2,2,0,2,22309,50000,8250,41040,0,0,0,0,0.00,0.00,0.00,0.00
2016-03-26 00:40:00,2,39830,0,0.00,2,2,0,2,26854,50000,8283,38579,0,0,0,0,0.00,0.00,0.00,0.00
2016-03-26 00:50:00,2,36278,0,0.00,2,2,0,2,21482,50000,9949,37556,0,0,0,0,0.00,0.00,0.00,0.00
2016-03-26 01:00:00,2,37814,0,0.00,2,2,0,2,16573,50000,10906,36261,0,0,0,0,0.00,0.00,0.00,0.00
2016-03-26 01:10:00,2,33562,0,0.00,2,2,0,2,18552,49958,9333,32746,0,0,0,0,0.00,0.00,0.00,0.00
2016-03-26 01:20:00,2,32439,0,0.00,2,2,0,2,22777,43225,5289,32744,0,0,0,0,0.00,0.00,0.00,0.00
2016-03-26 01:30:00,2,31154,0,0.00,2,2,0,2,19637,50000,8665,27828,0,0,0,0,0.00,0.00,0.00,0.00
2016-03-26 01:40:00,2,41142,0,0.00,2,2,0,2,23862,50000,7232,43561,0,0,0,0,0.00,0.00,0.00,0.00
2016-03-26 01:50:00,2,38385,0,0.00,2,2,0,2,28868,48457,5649,37330,0,0,0,0,0.00,0.00,0.00,0.00
2016-03-26 02:00:00,2,37184,0,0.00,2,2,0,2,26206,48858,7441,36082,0,0,0,0,0.00,0.00,0.00,0.00
2016-03-26 02:10:00,2,35667,0,0.00,2,2,0,2,23687,47484,7455,35776,0,0,0,0,0.00,0.00,0.00,0.00
2016-03-26 02:20:00,2,40054,0,0.00,2,2,0,2,27850,50000,9163,40985,0,0,0,0,0.00,0.00,0.00,0.00
2016-03-26 02:30:00,2,36504,0,0.00,2,2,0,2,23207,50000,7743,37265,0,0,0,0,0.00,0.00,0.00,0.00
2016-03-26 02:40:00,2,37471,0,0.00,2,2,0,2,29620,49710,6162,35867,0,0,0,0,0.00,0.00,0.00,0.00
2016-03-26 02:50:00,2,38154,0,0.00,2,2,0,2,25190,48710,7007,40228,0,0,0,0,0.00,0.00,0.00,0.00
2016-03-26 03:00:00,2,42089,0,0.00,2,2,0,2,28238,50000,8278,45246,0,0,0,0,0.00,0.00,0.00,0.00
2016-03-26 03:10:00,2,30225,0,0.00,2,2,0,2,15271,49124,9659,30082,0,0,0,0,0.00,0.00,0.00,0.00
2016-03-26 03:20:00,2,31313,0,0.00,2,2,0,2,14948,50000,11329,31508,0,0,0,0,0.00,0.00,0.00,0.00
2016-03-26 03:30:00,2,40577,0,0.00,2,2,0,2,21164,50000,10843,44048,0,0,0,0,0.00,0.00,0.00,0.00
2016-03-26 03:40:00,2,31407,0,0.00,2,2,0,2,20464,39905,5629,33328,0,0,0,0,0.00,0.00,0.00,0.00
2016-03-26 03:50:00,2,33922,0,0.00,2,2,0,2,23005,50000,8174,31371,0,0,0,0,0.00,0.00,0.00,0.00
2016-03-26 04:00:00,2,41174,0,0.00,2,2,0,2,21800,50000,10204,46786,0,0,0,0,0.00,0.00,0.00,0.00
2016-03-26 04:10:00,2,42357,0,0.00,2,2,0,2,34598,50000,5653,43214,0,0,0,0,0.00,0.00,0.00,0.00
2016-03-26 04:20:00,2,40767,0,0.00,2,2,0,2,24764,48156,7082,42930,0,0,0,0,0.00,0.00,0.00,0.00
2016-03-26 04:30:00,2,43138,0,0.00,2,2,0,2,28060,50000,8363,47592,0,0,0,0,0.00,0.00,0.00,0.00
2016-03-26 04:40:00,2,45359,0,0.00,2,2,0,2,28747,50000,7511,49408,0,0,0,0,0.00,0.00,0.00,0.00
2016-03-26 04:50:00,2,44311,0,0.00,2,2,0,2,34306,50000,5865,46004,0,0,0,0,0.00,0.00,0.00,0.00
2016-03-26 05:00:00,2,37714,0,0.00,2,2,0,2,26021,47725,7531,35478,0,0,0,0,0.00,0.00,0.00,0.00
2016-03-26 05:10:00,2,40436,0,0.00,2,2,0,2,25331,50000,7817,40868,0,0,0,0,0.00,0.00,0.00,0.00
2016-03-26 05:20:00,2,42094,0,0.00,2,2,0,2,29770,50000,6499,40390,0,0,0,0,0.00,0.00,0.00,0.00
2016-03-26 05:30:00,2,41233,0,0.00,2,2,0,2,26491,50000,8160,42332,0,0,0,0,0.00,0.00,0.00,0.00
2016-03-26 05:40:00,2,41918,0,0.00,2,2,0,2,36984,50000,4590,40393,0,0,0,0,0.00,0.00,0.00,0.00
2016-03-26 05:50:00,2,43309,0,0.00,2,2,0,2,26785,50000,7056,43470,0,0,0,0,0.00,0.00,0.00,0.00
2016-03-26 06:00:00,2,47390,0,0.00,2,2,0,2,40749,50000,3513,50000,0,0,0,0,0.00,0.00,0.00,0.00
2016-03-26 06:10:00,2,44074,0,0.00,2,2,0,2,35296,50000,4613,45739,0,0,0,0,0.00,0.00,0.00,0.00
2016-03-26 06:20:00,2,45272,0,0.00,2,2,0,2,39498,50000,3468,45512,0,0,0,0,0.00,0.00,0.00,0.00
2016-03-26 06:30:00,2,48124,0,0.00,2,2,0,2,43595,50000,2166,48948,0,0,0,0,0.00,0.00,0.00,0.00
2016-03-26 06:40:00,2,48211,0,0.00,2,2,0,2,42804,50000,2809,50000,0,0,0,0,0.00,0.00,0.00,0.00
2016-03-26 06:50:00,2,47493,0,0.00,2,2,0,2,42148,50000,2811,48534,0,0,0,0,0.00,0.00,0.00,0.00
2016-03-26 07:00:00,2,49580,0,0.00,2,2,0,2,47723,50000,826,50000,0,0,0,0,0.00,0.00,0.00,0.00
2016-03-26 07:10:00,2,49293,0,0.00,2,2,0,2,45009,50000,1557,50000,0,0,0,0,0.00,0.00,0.00,0.00
2016-03-26 07:20:00,2,49304,0,0.00,2,2,0,2,43935,50000,1809,50000,0,0,0,0,0.00,0.00,0.00,0.00
2016-03-26 07:30:00,2,49239,0,0.00,2,2,0,2,43538,50000,1931,50000,0,0,0,0,0.00,0.00,0.00,0.00
2016-03-26 07:40:00,2,49599,0,0.00,2,2,0,2,48427,50000,495,49812,0,0,0,0,0.00,0.00,0.00,0.00
2016-03-26 07:50:00,2,49100,0,0.00,2,2,0,2,44343,50000,1703,50000,0,0,0,0,0.00,0.00,0.00,0.00
2016-03-26 08:00:00,2,48642,0,0.00,2,2,0,2,44583,50000,1880,49844,0,0,0,0,0.00,0.00,0.00,0.00
2016-03-26 08:10:00,2,48247,0,0.00,2,2,0,2,42774,50000,2455,49606,0,0,0,0,0.00,0.00,0.00,0.00
2016-03-26 08:20:00,2,47267,0,0.00,2,2,0,2,40730,50000,3479,49996,0,0,0,0,0.00,0.00,0.00,0.00
2016-03-26 08:30:00,2,48431,0,0.00,2,2,0,2,43635,50000,1842,48540,0,0,0,0,0.00,0.00,0.00,0.00
2016-03-26 08:40:00,2,48857,0,0.00,2,2,0,2,41573,50000,2503,50000,0,0,0,0,0.00,0.00,0.00,0.00
2016-03-26 08:50:00,2,49531,0,0.00,2,2,0,2,45306,50000,1408,50000,0,0,0,0,0.00,0.00,0.00,0.00
2016-03-26 09:00:00,2,49217,0,0.00,2,2,0,2,45640,50000,1298,49835,0,0,0,0,0.00,0.00,0.00,0.00
2016-03-26 09:10:00,2,49799,0,0.00,2,2,0,2,47990,50000,603,50000,0,0,0,0,0.00,0.00,0.00,0.00
2016-03-26 09:20:00,2,49089,0,0.00,2,2,0,2,45339,50000,1822,50000,0,0,0,0,0.00,0.00,0.00,0.00
2016-03-26 09:30:00,2,49446,0,0.00,2,2,0,2,44646,50000,1601,50000,0,0,0,0,0.00,0.00,0.00,0.00
2016-03-26 09:40:00,2,49663,0,0.00,2,2,0,2,46628,50000,1012,50000,0,0,0,0,0.00,0.00,0.00,0.00
2016-03-26 09:50:00,2,50000,0,0.00,2,2,0,2,50000,50000,0,50000,0,0,0,0,0.00,0.00,0.00,0.00
2016-03-26 10:00:00,2,50000,0,0.00,2,2,0,2,50000,50000,0,50000,0,0,0,0,0.00,0.00,0.00,0.00
2016-03-26 10:10:00,2,50000,0,0.00,2,2,0,2,50000,50000,0,50000,0,0,0,0,0.00,0.00,0.00,0.00
2016-03-26 10:20:00,2,50000,0,0.00,2,2,0,2,50000,50000,0,50000,0,0,0,0,0.00,0.00,0.00,0.00
2016-03-26 10:30:00,2,49931,0,0.00,2,2,0,2,49310,50000,207,50000,0,0,0,0,0.00,0.00,0.00,0.00
2016-03-26 10:40:00,2,50000,0,0.00,2,2,0,2,50000,50000,0,50000,0,0,0,0,0.00,0.00,0.00,0.00
2016-03-26 10:50:00,2,50000,0,0.00,2,2,0,2,50000,50000,0,50000,0,0,0,0,0.00,0.00,0.00,0.00
2016-03-26 11:00:00,2,50000,0,0.00,2,2,0,2,50000,50000,0,50000,0,0,0,0,0.00,0.00,0.00,0.00
2016-03-26 11:10:00,2,50000,0,0.00,2,2,0,2,50000,50000,0,50000,0,0,0,0,0.00,0.00,0.00,0.00
2016-03-26 11:20:00,2,50000,0,0.00,2,2,0,2,50000,50000,0,50000,0,0,0,0,0.00,0.00,0.00,0.00
2016-03-26 11:30:00,2,50000,0,0.00,2,2,0,2,50000,50000,0,50000,0,0,0,0,0.00,0.00,0.00,0.00
2016-03-26 11:40:00,2,49744,0,0.00,2,2,0,2,47445,50000,766,50000,0,0,0,0,0.00,0.00,0.00,0.00
2016-03-26 11:50:00,2,50000,0,0.00,2,2,0,2,50000,50000,0,50000,0,0,0,0,0.00,0.00,0.00,0.00
2016-03-26 12:00:00,2,50000,0,0.00,2,2,0,2,50000,50000,0,50000,0,0,0,0,0.00,0.00,0.00,0.00
2016-03-26 12:10:00,2,50000,0,0.00,2,2,0,2,50000,50000,0,50000,0,0,0,0,0.00,0.00,0.00,0.00
2016-03-26 12:20:00,2,50000,0,0.00,2,2,0,2,50000,50000,0,50000,0,0,0,0,0.00,0.00,0.00,0.00
2016-03-26 12:30:00,2,50000,0,0.00,2,2,0,2,50000,50000,0,50000,0,0,0,0,0.00,0.00,0.00,0.00
2016-03-26 12:40:00,2,50000,0,0.00,2,2,0,2,50000,50000,0,50000,0,0,0,0,0.00,0.00,0.00,0.00
2016-03-26 12:50:00,2,50000,0,0.00,2,2,0,2,50000,50000,0,50000,0,0,0,0,0.00,0.00,0.00,0.00
2016-03-26 13:00:00,2,50000,0,0.00,2,2,0,2,50000,50000,0,50000,0,0,0,0,0.00,0.00,0.00,0.00
2016-03-26 13:10:00,2,50000,0,0.00,2,2,0,2,50000,50000,0,50000,0,0,0,0,0.00,0.00,0.00,0.00
2016-03-26 13:20:00,2,50000,0,0.00,2,2,0,2,50000,50000,0,50000,0,0,0,0,0.00,0.00,0.00,0.00
2016-03-26 13:30:00,2,50000,0,0.00,2,2,0,2,50000,50000,0,50000,0,0,0,0,0.00,0.00,0.00,0.00
2016-03-26 13:40:00,2,50000,0,0.00,2,2,0,2,50000,50000,0,50000,0,0,0,0,0.00,0.00,0.00,0.00
2016-03-26 13:50:00,2,50000,0,0.00,2,2,0,2,50000,50000,0,50000,0,0,0,0,0.00,0.00,0.00,0.00
2016-03-26 14:00:00,2,50000,0,0.00,2,2,0,2,50000,50000,0,50000,0,0,0,0,0.00,0.00,0.00,0.00
2016-03-26 14:10:00,2,50000,0,0.00,2,2,0,2,50000,50000,0,50000,0,0,0,0,0.00,0.00,0.00,0.00
2016-03-26 14:20:00,2,50000,0,0.00,2,2,0,2,50000,50000,0,50000,0,0,0,0,0.00,0.00,0.00,0.00
2016-03-26 14:30:00,2,50000,0,0.00,2,2,0,2,50000,50000,0,50000,0,0,0,0,0.00,0.00,0.00,0.00
2016-03-26 14:40:00,2,50000,0,0.00,2,2,0,2,50000,50000,0,50000,0,0,0,0,0.00,0.00,0.00,0.00
2016-03-26 14:50:00,2,50000,0,0.00,2,2,0,2,50000,50000,0,50000,0,0,0,0,0.00,0.00,0.00,0.00
2016-03-26 15:00:00,2,50000,0,0.00,2,2,0,2,50000,50000,0,50000,0,0,0,0,0.00,0.00,0.00,0.00
2016-03-26 15:10:00,2,50000,0,0.00,2,2,0,2,50000,50000,0,50000,0,0,0,0,0.00,0.00,0.00,0.00
2016-03-26 15:20:00,2,50000,0,0.00,2,2,0,2,50000,50000,0,50000,0,0,0,0,0.00,0.00,0.00,0.00
2016-03-26 15:30:00,2,50000,0,0.00,2,2,0,2,50000,50000,0,50000,0,0,0,0,0.00,0.00,0.00,0.00
2016-03-26 15:40:00,2,50000,0,0.00,2,2,0,2,50000,50000,0,50000,0,0,0,0,0.00,0.00,0.00,0.00
2016-03-26 15:50:00,2,49953,0,0.00,2,2,0,2,49527,50000,142,50000,0,0,0,0,0.00,0.00,0.00,0.00
2016-03-26 16:00:00,2,50000,0,0.00,2,2,0,2,50000,50000,0,50000,0,0,0,0,0.00,0.00,0.00,0.00
2016-03-26 16:10:00,2,50000,0,0.00,2,2,0,2,50000,50000,0,50000,0,0,0,0,0.00,0.00,0.00,0.00
2016-03-26 16:20:00,2,50000,0,0.00,2,2,0,2,50000,50000,0,50000,0,0,0,0,0.00,0.00,0.00,0.00
2016-03-26 16:30:00,2,50000,0,0.00,2,2,0,2,50000,50000,0,50000,0,0,0,0,0.00,0.00,0.00,0.00
2016-03-26 16:40:00,2,50000,0,0.00,2,2,0,2,50000,50000,0,50000,0,0,0,0,0.00,0.00,0.00,0.00
2016-03-26 16:50:00,2,50000,0,0.00,2,2,0,2,50000,50000,0,50000,0,0,0,0,0.00,0.00,0.00,0.00
2016-03-26 17:00:00,2,50000,0,0.00,2,2,0,2,50000,50000,0,50000,0,0,0,0,0.00,0.00,0.00,0.00
2016-03-26 17:10:00,2,50000,0,0.00,2,2,0,2,50000,50000,0,50000,0,0,0,0,0.00,0.00,0.00,0.00
2016-03-26 17:20:00,2,50000,0,0.00,2,2,0,2,50000,50000,0,50000,0,0,0,0,0.00,0.00,0.00,0.00
2016-03-26 17:30:00,2,50000,0,0.00,2,2,0,2,50000,50000,0,50000,0,0,0,0,0.00,0.00,0.00,0.00
2016-03-26 17:40:00,2,50000,0,0.00,2,2,0,2,50000,50000,0,50000,0,0,0,0,0.00,0.00,0.00,0.00
2016-03-26 17:50:00,2,50000,0,0.00,2,2,0,2,50000,50000,0,50000,0,0,0,0,0.00,0.00,0.00,0.00
2016-03-26 18:00:00,2,50000,0,0.00,2,2,0,2,50000,50000,0,50000,0,0,0,0,0.00,0.00,0.00,0.00
2016-03-26 18:10:00,2,50000,0,0.00,2,2,0,2,50000,50000,0,50000,0,0,0,0,0.00,0.00,0.00,0.00
2016-03-26 18:20:00,2,50000,0,0.00,2,2,0,2,50000,50000,0,50000,0,0,0,0,0.00,0.00,0.00,0.00
2016-03-26 18:30:00,2,50000,0,0.00,2,2,0,2,50000,50000,0,50000,0,0,0,0,0.00,0.00,0.00,0.00
2016-03-26 18:40:00,2,50000,0,0.00,2,2,0,2,50000,50000,0,50000,0,0,0,0,0.00,0.00,0.00,0.00
2016-03-26 18:50:00,2,50000,0,0.00,2,2,0,2,50000,50000,0,50000,0,0,0,0,0.00,0.00,0.00,0.00
2016-03-26 19:00:00,2,49990,0,0.00,2,2,0,2,49896,50000,31,50000,0,0,0,0,0.00,0.00,0.00,0.00
2016-03-26 19:10:00,2,50000,0,0.00,2,2,0,2,50000,50000,0,50000,0,0,0,0,0.00,0.00,0.00,0.00
2016-03-26 19:20:00,2,50000,0,0.00,2,2,0,2,50000,50000,0,50000,0,0,0,0,0.00,0.00,0.00,0.00
2016-03-26 19:30:00,2,50000,0,0.00,2,2,0,2,50000,50000,0,50000,0,0,0,0,0.00,0.00,0.00,0.00
2016-03-26 19:40:00,2,50000,0,0.00,2,2,0,2,50000,50000,0,50000,0,0,0,0,0.00,0.00,0.00,0.00
2016-03-26 19:50:00,2,49957,0,0.00,2,2,0,2,49574,50000,128,50000,0,0,0,0,0.00,0.00,0.00,0.00
2016-03-26 20:00:00,2,50000,0,0.00,2,2,0,2,50000,50000,0,50000,0,0,0,0,0.00,0.00,0.00,0.00
2016-03-26 20:10:00,2,50000,0,0.00,2,2,0,2,50000,50000,0,50000,0,0,0,0,0.00,0.00,0.00,0.00
2016-03-26 20:20:00,2,49943,0,0.00,2,2,0,2,49426,50000,172,50000,0,0,0,0,0.00,0.00,0.00,0.00
2016-03-26 20:30:00,2,49999,0,0.00,2,2,0,2,49992,50000,2,50000,0,0,0,0,0.00,0.00,0.00,0.00
2016-03-26 20:40:00,2,50000,0,0.00,2,2,0,2,50000,50000,0,50000,0,0,0,0,0.00,0.00,0.00,0.00
2016-03-26 20:50:00,2,50000,0,0.00,2,2,0,2,50000,50000,0,50000,0,0,0,0,0.00,0.00,0.00,0.00
2016-03-26 21:00:00,2,50000,0,0.00,2,2,0,2,50000,50000,0,50000,0,0,0,0,0.00,0.00,0.00,0.00
2016-03-26 21:10:00,2,49208,0,0.00,2,2,0,2,45849,50000,1587,50000,0,0,0,0,0.00,0.00,0.00,0.00
2016-03-26 21:20:00,2,49969,0,0.00,2,2,0,2,49690,50000,93,50000,0,0,0,0,0.00,0.00,0.00,0.00
2016-03-26 21:30:00,2,50000,0,0.00,2,2,0,2,50000,50000,0,50000,0,0,0,0,0.00,0.00,0.00,0.00
2016-03-26 21:40:00,2,49663,0,0.00,2,2,0,2,47274,50000,816,50000,0,0,0,0,0.00,0.00,0.00,0.00
2016-03-26 21:50:00,2,49736,0,0.00,2,2,0,2,48609,50000,507,50000,0,0,0,0,0.00,0.00,0.00,0.00
2016-03-26 22:00:00,2,50000,0,0.00,2,2,0,2,50000,50000,0,50000,0,0,0,0,0.00,0.00,0.00,0.00
2016-03-26 22:10:00,2,49495,0,0.00,2,2,0,2,48001,50000,731,50000,0,0,0,0,0.00,0.00,0.00,0.00
2016-03-26 22:20:00,2,49745,0,0.00,2,2,0,2,48315,50000,542,50000,0,0,0,0,0.00,0.00,0.00,0.00
2016-03-26 22:30:00,2,50000,0,0.00,2,2,0,2,50000,50000,0,50000,0,0,0,0,0.00,0.00,0.00,0.00
2016-03-26 22:40:00,2,49080,0,0.00,2,2,0,2,44742,50000,1864,50000,0,0,0,0,0.00,0.00,0.00,0.00
2016-03-26 22:50:00,2,49791,0,0.00,2,2,0,2,48199,50000,538,50000,0,0,0,0,0.00,0.00,0.00,0.00
2016-03-26 23:00:00,2,49704,0,0.00,2,2,0,2,47037,50000,889,50000,0,0,0,0,0.00,0.00,0.00,0.00
2016-03-26 23:10:00,2,49235,0,0.00,2,2,0,2,47040,50000,1080,49866,0,0,0,0,0.00,0.00,0.00,0.00
2016-03-26 23:20:00,2,48210,0,0.00,2,2,0,2,43796,50000,2053,49008,0,0,0,0,0.00,0.00,0.00,0.00
2016-03-26 23:30:00,2,49207,0,0.00,2,2,0,2,45907,50000,1587,50000,0,0,0,0,0.00,0.00,0.00,0.00
2016-03-26 23:40:00,2,41680,0,0.00,2,2,0,2,29895,50000,7196,42419,0,0,0,0,0.00,0.00,0.00,0.00
2016-03-26 23:50:00,2,39794,0,0.00,2,2,0,2,27351,50000,8066,39328,0,0,0,0,0.00,0.00,0.00,0.00
